When you browse on this site, cookies collect data to enhance your experience and personalize the content and advertising you see.
Visit our Privacy Policy to learn more. By continuing to use the site, you agree to this use of cookies and data.

Hourly Weather Pervoe Maya

Today, 8 July, Wednesday

Time Temperature Precipitation Wind Pressure Humidity
00:00 +21°C° 0 mm 3 mps 731 mmHg 85%
01:00 +21°C° 0 mm 2 mps 731 mmHg 84%
02:00 +20°C° 0 mm 2 mps 732 mmHg 87%
03:00 +20°C° 0.1 mm 2 mps 731 mmHg 86%
04:00 +21°C° 0.1 mm 2 mps 731 mmHg 86%
05:00 +21°C° 0.1 mm 2 mps 731 mmHg 85%
06:00 +23°C° 0 mm 1 mps 731 mmHg 82%
07:00 +24°C° 0 mm 1 mps 731 mmHg 79%
08:00 +25°C° 0 mm 1 mps 731 mmHg 76%
09:00 +26°C° 0 mm 2 mps 732 mmHg 76%
10:00 +26°C° 0 mm 2 mps 732 mmHg 76%
11:00 +27°C° 0 mm 3 mps 732 mmHg 75%
12:00 +26°C° 0.3 mm 3 mps 732 mmHg 79%
13:00 +25°C° 0.3 mm 3 mps 733 mmHg 82%
14:00 +25°C° 0.3 mm 4 mps 733 mmHg 86%
15:00 +23°C° 3 mm 4 mps 733 mmHg 88%
16:00 +22°C° 3 mm 4 mps 733 mmHg 91%
17:00 +21°C° 3 mm 4 mps 734 mmHg 93%
18:00 +21°C° 1.2 mm 4 mps 734 mmHg 94%
19:00 +20°C° 1.2 mm 4 mps 734 mmHg 96%
20:00 +19°C° 1.2 mm 3 mps 734 mmHg 97%
21:00 +18°C° 0.4 mm 4 mps 735 mmHg 97%
22:00 +18°C° 0.4 mm 4 mps 735 mmHg 97%
23:00 +16°C° 0.4 mm 5 mps 735 mmHg 97%

Tomorrow, 9 July, Thursday

Time Temperature Precipitation Wind Pressure Humidity
00:00 +15°C° 0.4 mm 5 mps 735 mmHg 96%
01:00 +14°C° 0.4 mm 5 mps 735 mmHg 96%
02:00 +13°C° 0.4 mm 6 mps 735 mmHg 95%
03:00 +13°C° 0 mm 6 mps 735 mmHg 95%
04:00 +13°C° 0 mm 6 mps 735 mmHg 94%
05:00 +13°C° 0 mm 5 mps 735 mmHg 94%
06:00 +13°C° 0 mm 6 mps 736 mmHg 92%
07:00 +14°C° 0 mm 6 mps 736 mmHg 89%
08:00 +14°C° 0 mm 6 mps 737 mmHg 87%
09:00 +16°C° 0 mm 6 mps 737 mmHg 82%
10:00 +17°C° 0 mm 6 mps 737 mmHg 77%
11:00 +19°C° 0 mm 6 mps 738 mmHg 72%
12:00 +20°C° 0 mm 5 mps 738 mmHg 70%
13:00 +21°C° 0 mm 5 mps 738 mmHg 69%
14:00 +21°C° 0 mm 4 mps 739 mmHg 67%
15:00 +21°C° 0.2 mm 4 mps 739 mmHg 70%
16:00 +20°C° 0.2 mm 4 mps 739 mmHg 73%
17:00 +20°C° 0.2 mm 4 mps 739 mmHg 76%
18:00 +18°C° 0.1 mm 3 mps 739 mmHg 80%
19:00 +17°C° 0.1 mm 3 mps 739 mmHg 85%
20:00 +15°C° 0.1 mm 2 mps 740 mmHg 89%
21:00 +14°C° 0 mm 3 mps 740 mmHg 90%
22:00 +13°C° 0 mm 3 mps 741 mmHg 90%
23:00 +12°C° 0 mm 3 mps 741 mmHg 91%

Day after tomorrow, 10 July, Friday

Time Temperature Precipitation Wind Pressure Humidity
00:00 +12°C° 0 mm 3 mps 741 mmHg 91%
01:00 +11°C° 0 mm 3 mps 742 mmHg 91%
02:00 +11°C° 0 mm 3 mps 742 mmHg 91%
03:00 +11°C° 0 mm 3 mps 742 mmHg 90%
04:00 +11°C° 0 mm 3 mps 742 mmHg 89%
05:00 +11°C° 0 mm 3 mps 743 mmHg 89%
06:00 +13°C° 0 mm 3 mps 743 mmHg 84%
07:00 +16°C° 0 mm 2 mps 743 mmHg 79%
08:00 +17°C° 0 mm 2 mps 744 mmHg 73%
09:00 +18°C° 0 mm 2 mps 744 mmHg 70%
10:00 +19°C° 0 mm 2 mps 744 mmHg 66%
11:00 +20°C° 0 mm 2 mps 744 mmHg 63%
12:00 +20°C° 0 mm 2 mps 744 mmHg 62%
13:00 +21°C° 0 mm 2 mps 744 mmHg 61%
14:00 +21°C° 0 mm 2 mps 744 mmHg 60%
15:00 +21°C° 0 mm 2 mps 744 mmHg 62%
16:00 +21°C° 0 mm 2 mps 744 mmHg 65%
17:00 +21°C° 0 mm 2 mps 744 mmHg 68%
18:00 +20°C° 0 mm 2 mps 744 mmHg 72%
19:00 +18°C° 0 mm 2 mps 744 mmHg 76%
20:00 +16°C° 0 mm 2 mps 744 mmHg 81%
21:00 +16°C° 0 mm 2 mps 745 mmHg 81%
22:00 +15°C° 0 mm 2 mps 745 mmHg 82%
23:00 +15°C° 0 mm 2 mps 745 mmHg 82%

11 July, Saturday

Time Temperature Precipitation Wind Pressure Humidity
00:00 +15°C° 0 mm 2 mps 745 mmHg 84%
01:00 +14°C° 0 mm 2 mps 745 mmHg 85%
02:00 +14°C° 0 mm 2 mps 745 mmHg 87%
03:00 +15°C° 0 mm 2 mps 745 mmHg 87%
04:00 +15°C° 0 mm 2 mps 745 mmHg 87%
05:00 +15°C° 0 mm 2 mps 745 mmHg 87%
06:00 +17°C° 0 mm 3 mps 745 mmHg 84%
07:00 +18°C° 0 mm 3 mps 745 mmHg 80%
08:00 +20°C° 0 mm 4 mps 745 mmHg 76%
09:00 +21°C° 0 mm 4 mps 745 mmHg 73%
10:00 +22°C° 0 mm 4 mps 745 mmHg 71%
11:00 +23°C° 0 mm 4 mps 745 mmHg 68%
12:00 +25°C° 0 mm 4 mps 745 mmHg 68%
13:00 +25°C° 0 mm 4 mps 745 mmHg 68%
14:00 +25°C° 0 mm 4 mps 745 mmHg 67%
15:00 +25°C° 0 mm 4 mps 744 mmHg 70%
16:00 +25°C° 0 mm 4 mps 744 mmHg 73%
17:00 +25°C° 0 mm 3 mps 744 mmHg 75%
18:00 +22°C° 0 mm 3 mps 744 mmHg 79%
19:00 +21°C° 0 mm 3 mps 744 mmHg 83%
20:00 +19°C° 0 mm 2 mps 744 mmHg 87%
21:00 +19°C° 0 mm 2 mps 744 mmHg 87%
22:00 +18°C° 0 mm 2 mps 744 mmHg 87%
23:00 +18°C° 0 mm 2 mps 744 mmHg 88%

12 July, Sunday

Time Temperature Precipitation Wind Pressure Humidity
00:00 +17°C° 0 mm 2 mps 744 mmHg 88%
01:00 +17°C° 0 mm 2 mps 743 mmHg 88%
02:00 +16°C° 0 mm 2 mps 743 mmHg 89%
03:00 +17°C° 0 mm 2 mps 743 mmHg 88%
04:00 +17°C° 0 mm 2 mps 743 mmHg 87%
05:00 +17°C° 0 mm 2 mps 743 mmHg 87%
06:00 +19°C° 0 mm 2 mps 743 mmHg 83%
07:00 +20°C° 0 mm 3 mps 743 mmHg 79%
08:00 +22°C° 0 mm 3 mps 743 mmHg 75%
09:00 +24°C° 0 mm 3 mps 743 mmHg 71%
10:00 +25°C° 0 mm 3 mps 742 mmHg 67%
11:00 +26°C° 0 mm 3 mps 742 mmHg 64%
12:00 +26°C° 0 mm 3 mps 742 mmHg 64%
13:00 +26°C° 0 mm 3 mps 741 mmHg 63%
14:00 +26°C° 0 mm 4 mps 741 mmHg 63%
15:00 +26°C° 0 mm 3 mps 741 mmHg 66%
16:00 +26°C° 0 mm 3 mps 740 mmHg 69%
17:00 +25°C° 0 mm 2 mps 740 mmHg 72%
18:00 +24°C° 0 mm 2 mps 740 mmHg 75%
19:00 +21°C° 0 mm 2 mps 739 mmHg 79%
20:00 +20°C° 0 mm 2 mps 739 mmHg 82%
21:00 +19°C° 0 mm 2 mps 739 mmHg 83%
22:00 +18°C° 0 mm 2 mps 739 mmHg 84%
23:00 +18°C° 0 mm 2 mps 738 mmHg 86%

13 July, Monday

Time Temperature Precipitation Wind Pressure Humidity
00:00 +17°C° 0 mm 2 mps 738 mmHg 86%
01:00 +18°C° 0 mm 1 mps 737 mmHg 87%
02:00 +18°C° 0 mm 1 mps 737 mmHg 88%
03:00 +18°C° 0 mm 1 mps 737 mmHg 87%
04:00 +18°C° 0 mm 1 mps 737 mmHg 87%
05:00 +19°C° 0 mm 1 mps 737 mmHg 87%
06:00 +20°C° 0 mm 1 mps 736 mmHg 83%
07:00 +21°C° 0 mm 1 mps 736 mmHg 79%
08:00 +23°C° 0 mm 1 mps 736 mmHg 75%
09:00 +24°C° 0.2 mm 1 mps 736 mmHg 71%
10:00 +25°C° 0.2 mm 2 mps 736 mmHg 66%
11:00 +26°C° 0.2 mm 2 mps 736 mmHg 62%
12:00 +25°C° 0.6 mm 3 mps 736 mmHg 68%
13:00 +23°C° 0.6 mm 5 mps 736 mmHg 74%
14:00 +22°C° 0.6 mm 6 mps 736 mmHg 79%
15:00 +21°C° 0.3 mm 6 mps 736 mmHg 81%
16:00 +20°C° 0.3 mm 5 mps 736 mmHg 83%
17:00 +20°C° 0.3 mm 5 mps 736 mmHg 85%
18:00 +17°C° 0 mm 5 mps 736 mmHg 87%
19:00 +17°C° 0 mm 4 mps 736 mmHg 89%
20:00 +15°C° 0 mm 4 mps 736 mmHg 91%
21:00 +14°C° 0 mm 4 mps 736 mmHg 92%
22:00 +14°C° 0 mm 4 mps 736 mmHg 92%
23:00 +13°C° 0 mm 4 mps 736 mmHg 93%
Show more